Location: Hylvaty SDH
(49.9612°N, 16.4057°E)
Time: 19:52:47
(UTC+02:00)

Vanguard 1 - All Passes

Search period start: 09 August 2020 00:00
Search period end: 19 August 2020 00:00
Orbit: 649 x 3833 km, 34.3° (Epoch: 08 August)

Date Brightness Start Highest point End Pass type
(mag) Time Alt. Az. Time Alt. Az. Time Alt. Az.
09 Aug - 09:00:59 10° S 09:16:10 24° SE 09:31:33 10° E daylight
09 Aug - 11:18:24 10° SW 11:39:00 43° SSE 11:56:47 10° E daylight
09 Aug - 13:41:33 10° WSW 14:03:01 49° S 14:18:08 10° ESE daylight
09 Aug - 16:07:55 10° W 16:25:18 35° SSW 16:36:39 10° SSE daylight
09 Aug - 18:39:24 10° WSW 18:44:24 12° SW 18:48:41 10° SW daylight
10 Aug - 09:19:35 10° SSW 09:36:26 29° SE 09:53:33 10° E daylight
10 Aug - 11:38:38 10° SW 11:59:47 46° SSE 12:17:44 10° E daylight
10 Aug - 14:02:31 10° WSW 14:23:46 48° S 14:38:39 10° ESE daylight
10 Aug - 16:29:27 10° W 16:45:34 31° SW 16:56:25 10° SSE daylight
11 Aug - 07:28:05 10° SE 07:35:39 13° SE 07:43:38 10° ESE daylight
11 Aug - 09:38:48 10° SSW 09:56:50 34° SSE 10:15:08 10° E daylight
11 Aug - 11:59:06 10° WSW 12:20:37 49° S 12:38:36 10° ESE daylight
11 Aug - 14:23:36 10° W 14:44:29 46° SSW 14:59:03 10° SE daylight
11 Aug - 16:51:14 10° W 17:05:41 26° SW 17:15:51 10° S daylight
12 Aug - 07:43:55 10° SSE 07:55:33 18° SE 08:08:19 10° E daylight
12 Aug - 09:58:26 10° SSW 10:17:21 39° SSE 10:36:28 10° E daylight
12 Aug - 12:19:45 10° WSW 12:41:29 50° S 12:59:22 10° ESE daylight
12 Aug - 14:44:48 10° W 15:05:05 42° SSW 15:19:17 10° SE daylight
12 Aug - 17:13:25 10° W 17:25:39 21° SW 17:34:46 10° S daylight
13 Aug - 08:01:41 10° S 08:15:34 24° SE 08:31:11 10° E daylight
13 Aug - 10:18:23 10° SW 10:37:58 44° SSE 10:57:38 10° E daylight
13 Aug - 12:40:32 10° WSW 13:02:20 51° S 13:20:02 10° ESE daylight
13 Aug - 15:06:06 10° W 15:25:33 38° SSW 15:39:19 10° SSE daylight
13 Aug - 17:36:28 10° W 17:45:29 15° SW 17:52:46 10° SSW daylight
14 Aug - 08:20:22 10° S 08:35:42 29° SE 08:53:17 10° E daylight
14 Aug - 10:38:35 10° SW 10:58:42 47° SSE 11:18:40 10° E daylight
14 Aug - 13:01:26 10° WSW 13:23:10 50° S 13:40:36 10° ESE daylight
14 Aug - 15:27:34 10° W 15:45:53 34° SW 15:59:06 10° SSE daylight
14 Aug - 18:02:33 10° WSW 18:05:12 10° WSW 18:07:41 10° SW daylight
15 Aug - 06:30:09 10° SE 06:35:35 12° ESE 06:41:29 10° ESE daylight
15 Aug - 08:39:37 10° SSW 08:55:58 34° SE 09:14:57 10° E daylight
15 Aug - 10:59:01 10° SW 11:19:30 50° S 11:39:36 10° ESE daylight
15 Aug - 13:22:27 10° W 13:43:56 48° SSW 14:01:02 10° SE daylight
15 Aug - 15:49:16 10° W 16:06:04 29° SW 16:18:33 10° S daylight
16 Aug - 06:45:31 10° SSE 06:55:21 17° SE 07:06:50 10° E daylight
16 Aug - 08:59:16 10° SSW 09:16:23 39° SSE 09:36:22 10° E daylight
16 Aug - 11:19:36 10° WSW 11:40:21 51° S 12:00:27 10° ESE daylight
16 Aug - 13:43:34 10° W 14:04:36 44° SSW 14:21:18 10° SE daylight
16 Aug - 16:11:19 10° W 16:26:05 23° SW 16:37:31 10° S daylight
17 Aug - 07:03:17 10° S 07:15:15 22° SE 07:29:54 10° E daylight
17 Aug - 09:19:13 10° SW 09:36:55 43° SSE 09:57:37 10° E daylight
17 Aug - 11:40:19 10° WSW 12:01:14 52° S 12:21:10 10° ESE daylight
17 Aug - 14:04:48 10° W 14:25:09 40° SSW 14:41:21 10° SSE daylight
17 Aug - 16:34:04 10° W 16:45:59 18° SW 16:55:43 10° SSW daylight
18 Aug - 07:21:59 10° S 07:35:16 27° SE 07:52:08 10° E daylight
18 Aug - 09:39:25 10° SW 09:57:35 47° SSE 10:18:44 10° E daylight
18 Aug - 12:01:10 10° WSW 12:22:06 51° S 12:41:47 10° ESE daylight
18 Aug - 14:26:10 10° W 14:45:34 36° SSW 15:01:08 10° SSE daylight
18 Aug - 16:58:24 10° WSW 17:05:46 13° WSW 17:12:15 10° SW daylight
